EW3845 Weather Reports


time (UTC)temp
C
wind
direction
speed
KPH
gust
KPH
rain 1hr
cm
rain 24hr
cm
rain mn
cm
humidity
%
barometer
mb
20260902200004 18 360 0.0 0.0 0.00 0.00 0.00 75 1019.7
20260902194504 18 360 0.0 0.0 0.00 0.00 0.00 75 1019.7
20260902193004 18 360 0.0 0.0 0.00 0.00 0.00 74 1019.8
20260902191503 19 360 0.0 0.0 0.00 0.00 0.00 74 1019.6
20260902190007 19 360 0.0 0.0 0.00 0.00 0.00 72 1019.7
20260902184503 19 360 0.0 0.0 0.00 0.00 0.00 71 1019.7
20260902183002 20 360 0.0 0.0 0.00 0.00 0.00 70 1019.6
20260902181501 20 360 0.0 0.0 0.00 0.00 0.00 70 1019.5
20260902180005 20 360 0.0 0.0 0.00 0.00 0.00 68 1019.4
20260902174601 20 360 0.0 0.0 0.00 0.00 0.00 67 1019.3
20260902173100 20 290 0.0 0.0 0.00 0.00 0.00 67 1019.2
20260902171618 20 287 0.0 0.0 0.00 0.00 0.00 65 1019.1
20260902170059 21 360 0.0 0.0 0.00 0.00 0.00 64 1019.2
20260902164557 21 285 0.0 0.0 0.00 0.00 0.00 64 1019.3
20260902164505 21 285 0.0 0.0 0.00 0.00 0.00 64 1019.1
20260902164104 21 285 0.0 0.0 0.00 0.00 0.00 64 1019.4
20260902163556 21 285 0.0 0.0 0.00 0.00 0.00 65 1019.3
20260902163042 21 285 0.0 0.0 0.00 0.00 0.00 63 1019.4
20260902162555 21 285 0.0 0.0 0.00 0.00 0.00 63 1019.4
20260902162100 21 286 0.0 0.0 0.00 0.00 0.00 64 1019.5
20260902161652 21 284 0.0 0.0 0.00 0.00 0.00 64 1019.3
20260902161551 21 284 0.0 0.0 0.00 0.00 0.00 64 1019.5
20260902161117 21 285 0.0 0.0 0.00 0.00 0.00 64 1019.5
20260902160547 21 285 0.0 0.0 0.00 0.00 0.00 62 1019.5
20260902160155 21 285 0.0 0.0 0.00 0.00 0.00 62 1019.4
20260902160054 21 285 0.0 0.0 0.00 0.00 0.00 62 1019.6
20260902155546 21 288 0.0 0.0 0.00 0.00 0.00 62 1019.5
20260902155114 21 360 0.0 0.0 0.00 0.00 0.00 62 1019.5
20260902154648 21 360 0.0 0.0 0.00 0.00 0.00 62 1019.3
20260902154545 21 360 0.0 0.0 0.00 0.00 0.00 62 1019.5
20260902154054 22 287 0.0 0.0 0.00 0.00 0.00 61 1019.6
20260902153602 22 288 0.0 0.0 0.00 0.00 0.00 61 1019.6
20260902153049 22 282 0.0 0.0 0.00 0.00 0.00 62 1019.6
20260902153002 22 277 0.0 0.0 0.00 0.00 0.00 62 1019.4
20260902152600 22 360 0.0 0.0 0.00 0.00 0.00 62 1019.7
20260902152045 22 360 0.0 0.0 0.00 0.00 0.00 63 1019.7
20260902151600 22 360 0.0 0.0 0.00 0.00 0.00 63 1019.7
20260902151047 22 285 0.0 0.0 0.00 0.00 0.00 60 1019.7
20260902150559 22 360 0.0 0.0 0.00 0.00 0.00 62 1019.7
20260902150105 22 294 0.0 0.0 0.00 0.00 0.00 64 1019.7
20260902145557 22 292 0.0 0.0 0.00 0.00 0.00 64 1019.8
20260902145047 22 360 0.0 0.0 0.00 0.00 0.00 63 1019.9
20260902144602 22 360 0.0 0.0 0.00 0.00 0.00 65 1019.8
20260902143031 21 360 0.0 0.0 0.00 0.00 0.00 65 1019.6
20260902141539 21 292 0.0 0.0 0.00 0.00 0.00 65 1019.7
20260902140029 21 292 0.0 0.0 0.00 0.00 0.00 67 1019.7
20260902134530 21 292 0.0 0.0 0.00 0.00 0.00 68 1019.8
20260902133032 21 360 0.0 0.0 0.00 0.00 0.00 67 1019.8
20260902131528 21 360 0.0 0.0 0.00 0.00 0.00 67 1019.9
20260902130032 21 287 0.0 0.0 0.00 0.00 0.00 67 1019.9
20260902124528 21 289 0.0 0.0 0.00 0.00 0.00 68 1020.0
20260902123027 21 288 0.0 0.0 0.00 0.00 0.00 67 1020.1
20260902121526 21 286 0.0 0.0 0.00 0.00 0.00 69 1020.2
20260902120027 22 286 0.0 0.0 0.00 0.00 0.00 67 1020.1
20260902114528 22 360 0.0 0.0 0.00 0.00 0.00 66 1020.0
20260902113028 22 286 0.0 0.0 0.00 0.00 0.00 66 1020.1
20260902111522 22 290 0.0 0.0 0.00 0.00 0.00 68 1020.1
20260902110020 21 360 0.0 0.0 0.00 0.00 0.00 71 1020.1
20260902104523 21 360 0.0 0.0 0.00 0.00 0.00 71 1020.1
20260902103015 21 254 0.0 0.0 0.00 0.00 0.00 70 1020.0
20260902101513 21 360 0.0 0.0 0.00 0.00 0.00 72 1020.4
20260902100009 20 298 0.0 0.0 0.00 0.00 0.00 74 1020.3
20260902094508 20 360 0.0 0.0 0.00 0.00 0.00 74 1020.2
20260902093006 20 360 0.0 0.0 0.00 0.00 0.00 73 1020.3
20260902091510 20 250 0.0 0.0 0.00 0.00 0.00 74 1020.2
20260902090003 19 360 0.0 0.0 0.00 0.00 0.00 78 1020.2
20260902084604 18 360 0.0 0.0 0.00 0.00 0.00 78 1020.1
20260902083058 18 360 0.0 0.0 0.00 0.00 0.00 81 1020.1
20260902081556 17 360 0.0 0.0 0.00 0.00 0.00 83 1020.0
20260902080051 16 296 0.0 0.0 0.00 0.00 0.00 84 1020.1
20260902074606 16 360 0.0 0.0 0.00 0.00 0.00 85 1020.0
20260902073045 16 360 0.0 0.0 0.00 0.00 0.00 86 1019.9
20260902071543 15 285 0.0 0.0 0.00 0.00 0.00 88 1019.8
20260902070042 15 284 0.0 0.0 0.00 0.00 0.00 90 1019.7
20260902064543 15 284 0.0 0.0 0.00 0.00 0.00 90 1019.8
20260902063100 15 284 0.0 0.0 0.00 0.00 0.00 90 1019.7
20260902061539 15 284 0.0 0.0 0.00 0.00 0.00 91 1019.6
20260902060052 15 284 0.0 0.0 0.00 0.00 0.00 91 1019.6
20260902054539 14 284 0.0 0.0 0.00 0.00 0.00 91 1019.7
20260902053037 14 284 0.0 0.0 0.00 0.00 0.00 92 1019.5
20260902051546 14 284 0.0 0.0 0.00 0.00 0.00 92 1019.4
20260902050035 14 284 0.0 0.0 0.00 0.00 0.00 92 1019.4
20260902044537 14 284 0.0 0.0 0.00 0.00 0.00 92 1019.2
20260902043041 14 284 0.0 0.0 0.00 0.00 0.00 92 1019.0
20260902041549 14 284 0.0 0.0 0.00 0.00 0.00 92 1019.0
20260902040032 14 284 0.0 0.0 0.00 0.00 0.00 92 1019.1
20260902034533 14 284 0.0 0.0 0.00 0.00 0.00 92 1019.2
20260902033031 15 284 0.0 0.0 0.00 0.00 0.00 92 1019.1
20260902031532 15 284 0.0 0.0 0.00 0.00 0.00 92 1019.1
20260902030030 15 284 0.0 0.0 0.00 0.00 0.00 92 1019.0
20260902024530 15 284 0.0 0.0 0.00 0.00 0.00 92 1019.2
20260902023029 15 284 0.0 0.0 0.00 0.00 0.00 92 1019.1
20260902021528 15 284 0.0 0.0 0.00 0.00 0.00 92 1019.4
20260902020032 15 284 0.0 0.0 0.00 0.00 0.00 92 1019.6
20260902014533 15 284 0.0 0.0 0.00 0.00 0.00 92 1019.5
20260902013026 15 284 0.0 0.0 0.00 0.00 0.00 91 1019.4
20260902011526 15 284 0.0 0.0 0.00 0.00 0.00 91 1019.3
20260902010028 15 284 0.0 0.0 0.00 0.00 0.00 91 1019.4
20260902004529 15 284 0.0 0.0 0.00 0.00 0.00 91 1019.6
20260902003104 15 284 0.0 0.0 0.00 0.00 0.00 91 1019.6
20260902001522 15 284 0.0 0.0 0.00 0.00 0.00 91 1019.7
20260902000031 15 284 0.0 0.0 0.00 0.00 0.00 90 1019.7
20260901234520 14 284 0.0 0.0 0.00 0.00 0.00 90 1019.8
20260901233019 15 284 0.0 0.0 0.00 0.00 0.00 90 1019.6
20260901231517 15 284 0.0 0.0 0.00 0.00 0.00 89 1019.6
20260901230017 15 284 0.0 0.0 0.00 0.00 0.00 89 1019.7
20260901224513 15 284 0.0 0.0 0.00 0.00 0.00 89 1019.8
20260901223011 15 284 0.0 0.0 0.00 0.00 0.00 89 1020.0
20260901221510 15 284 0.0 0.0 0.00 0.00 0.00 89 1020.2
20260901220013 15 284 0.0 0.0 0.00 0.00 0.00 89 1020.2
20260901214506 15 284 0.0 0.0 0.00 0.00 0.00 88 1020.1
20260901213005 15 284 0.0 0.0 0.00 0.00 0.00 88 1020.1
20260901211505 15 284 0.0 0.0 0.00 0.00 0.00 88 1020.1
20260901210004 15 284 0.0 0.0 0.00 0.00 0.00 88 1019.9
20260901204504 15 284 0.0 0.0 0.00 0.00 0.00 87 1019.8
20260901203003 15 284 0.0 0.0 0.00 0.00 0.00 87 1019.9
20260901201502 16 284 0.0 0.0 0.00 0.00 0.00 86 1019.8